Torna al catalogo

NAVSTAR 23

USA 71

LostNavigazioneMEO
NORAD 21552·PAYLOAD·🇺🇸 United States

Lanciato Jul 4, 1991 da Cape Canaveral Space Force Station

Loading…

Prossimi Passaggi (prossime 24 ore)

TLE

ObsoletoSource: Space-Track

Epoca: Jul 31, 2026, 15:09 UTC

1 21552U 91047A   26212.63151373 -.00000083  00000-0  00000+0 0  9999
2 21552  56.5108 351.0023 0034397 135.6926 222.5436  1.91858479252234

Traccia NAVSTAR 23 in tempo reale con AllMySat

Download on the App Store